SCP
0 0 0 0 0 0 0 0 0 0 0 0 0 0 0 0 0 0 0 0 0 0 0 0 0 0 0 0 0 0 0 0 0 0 0 0 0 0 0 0 0 0 0
0 0 0 0 0 0 0 0 0 0 0 0 0 0 0 0 0 0 0 0 0 0 0 0 0 0 0 0 0 0 0 0 0 0 0 0 0 0 0 0 0 0 0
0 0 0 0 0 0 0 0 0 0 0 0 0 0 0 0 0 0 0 0 0 0 0 0 0 0 0 0 0 0 0 0 0 0 0 0 0 0 0 0 0 0 0
0 0 0 0 0 0 0 0 0 0 0 0 0 0 0 0 0 0 0 0 0 0 0 0 0 0 0 0 0 0 0 0 0 0 0 0 0 0 0 0 0 0 0
0 0 0 0 0 0 0 0 0 0 0 0 0 0 0 0 0 0 0 0 0 0 0 0 0 0 0 0 0 0 0 0 0 0 0 0 0 0 0 0 0 0 0
0 0 0 0 0 0 0 0 0 0 0 0 0 0 0 0 0 0 0 0 0 0 0 0 0 0 0 0 0 0 0 0 0 0 0 0 0 0 0 0 0 0 0
0 0 0 0 0 0 0 0 0 0 0 0 0 0 0 0 0 0 0 0 0 0 0 0 0 0 -0 0 0 0 0 0 0 0 0 0 0 0 0 0 0 0 0
0 0 0 0 0 0 0 0 0 0 0 0 0 0 0 0 0 0 -0 0 0 0 0 0 0 0 -0 -0 0 0 0 0 0 0 0 0 0 0 0 0 0 0 0
0 0 0 0 0 0 0 0 0 0 0 0 0 0 0 0 0 -0 0 -0 0 0 0 0 0 -0 0 0 0 0 0 0 0 0 0 0 0 0 0 0 0 0 0
0 0 0 0 0 0 0 0 0 0 0 0 0 0 0 0 0 -0 0 -0 -0 0 0 0 0 0 0 0 0 0 0 0 0 0 0 0 0 0 0 0 0 0 0
0 0 0 0 0 0 0 0 0 0 0 0 0 0 0 0 0 -0 -0 -0 -0 0 0 0 0 0 0 0 0 0 0 0 0 0 0 0 -0 0 0 0 0 0 0
0 0 0 0 0 0 0 0 0 0 0 0 0 0 0 0 0 0 -0 0 0 -0 -0 0 0 0 0 0 0 0 -0 0 0 0 0 0 0 0 0 0 0 0 0
0 0 0 0 0 0 0 0 0 0 0 0 0 0 0 0 0 0 0 -0 0 0 -0 0 0 0 0 0 0 0 0 0 0 0 0 0 0 0 0 0 0 0 0
0 0 0 0 0 0 0 0 0 0 0 0 0 0 0 0 0 0 0 0 -0 0 0 -0 -0 -0 -0 -0 0 0 0 0 0 0 0 0 0 0 0 0 0 0 0
0 0 0 0 0 0 0 0 0 0 0 0 0 0 0 0 0 -0 -0 -0 -0 0 -0 -0 -0 -0 0 0 0 0 0 0 -0 0 0 0 0 0 0 0 0 0 0
0 0 0 0 0 0 0 0 -0 -0 0 0 0 0 0 0 0 -0 -0 -0 -0 -0 0 -0 -0 -0 -0 -0 0 0 0 -0 -0 0 0 0 0 0 0 0 0 0 0
0 0 0 0 0 0 0 0 0 0 0 0 0 -0 0 0 -0 -0 0 -0 -0 0 -0 -0 -0 0 -0 -0 -0 -0 -0 -0 -0 0 0 0 0 0 0 0 0 0 0
0 0 0 0 0 0 0 -0 -0 0 0 0 0 0 0 -0 -0 -0 0 0 0 0 0 0 0 0 0 0 -0 -0 -0 -0 -0 -0 0 0 0 0 0 0 0 0 0
0 0 0 0 0 0 0 0 0 0 0 0 0 0 0 0 0 0 0 0 0 0 0 0 0 0 0 0 0 0 0 0 0 0 0 0 0 0 0 0 0 0 0
0 -0 -0 0 0 0 0 0 0 0 0 0 0 -0 0 0 0 0 0 0 0 0 0 0 0 0 0 0 0 0 0 0 0 0 0 0 0 0 0 0 0 0 0
0 0 -0 -0 0 0 0 0 0 0 0 0 0 0 -0 0 0 0 0 0 0 0 0 0 0 0 0 0 0 0 0 0 0 0 0 0 0 0 0 0 0 0 0
0 0 -0 -0 -0 0 0 0 0 0 0 0 0 0 -0 0 0 0 0 0 0 0 0 0 0 0 0 0 0 0 0 0 0 0 0 0 0 0 0 0 0 0 0
0 0 -0 -0 -0 -0 0 0 0 0 0 0 0 0 0 0 0 0 0 0 -0 -0 0 0 0 0 0 0 0 0 0 0 0 -0 0 0 0 0 0 0 0 0 0
0 0 -0 -0 -0 0 0 0 0 0 0 0 0 0 0 0 0 0 0 -0 0 0 0 0 0 0 0 0 0 0 0 0 0 0 0 0 0 0 0 0 0 0 0
0 -0 -0 -0 0 0 0 0 0 0 0 0 0 0 0 0 0 0 0 0 0 0 0 0 0 0 0 0 0 0 0 0 0 0 0 0 0 0 0 0 0 0 0
0 -0 0 0 0 0 0 0 0 0 0 0 0 0 0 0 0 0 0 0 0 0 0 0 0 0 0 0 0 0 0 0 0 0 0 0 0 0 0 0 0 0 0
Wind_Speed_500mb
64 64 68 70 71 72 67 66 70 74 76 77 78 80 76 74 71 69 73 78 71 77 75 79 78 74 76 65 59 54 59 63 68 56 50 54 49 42 54 70 65 61 60
63 70 70 71 65 65 69 70 65 65 65 68 75 78 86 90 79 73 74 74 66 76 68 72 79 71 67 66 66 61 68 57 56 59 50 48 38 59 45 33 59 55 58
65 69 67 64 66 68 70 72 76 79 92 89 83 85 89 87 85 82 76 72 67 75 68 65 62 66 72 74 76 67 60 67 68 52 52 45 45 41 69 45 49 56 54
66 60 61 68 74 67 73 85 89 83 82 87 83 87 89 89 89 85 77 73 71 76 70 70 63 77 71 66 64 67 57 60 61 57 52 49 47 47 50 58 55 58 47
60 63 76 66 73 87 75 78 82 77 89 85 88 93 90 85 84 77 77 75 68 66 71 69 82 49 68 67 60 74 66 61 48 44 48 55 54 52 46 48 46 53 51
60 63 64 74 83 81 83 78 84 86 90 84 92 90 91 86 85 74 73 73 70 76 73 81 76 90 71 63 68 63 75 63 47 48 42 51 56 51 45 39 44 52 55
63 70 80 74 80 84 84 83 89 92 92 90 90 85 83 77 75 74 72 70 73 73 74 71 68 71 74 66 70 52 47 48 56 51 59 44 53 56 47 37 47 61 61
65 78 75 76 84 89 89 88 92 89 91 89 85 81 80 75 64 61 63 63 65 66 70 65 60 66 70 79 76 67 42 41 44 49 60 59 55 54 46 39 41 55 66
68 79 77 78 96 92 94 89 88 92 93 88 80 80 72 69 60 59 53 55 55 57 55 59 58 61 69 60 52 36 35 34 35 44 48 49 54 61 56 41 46 49 64
79 81 79 94 91 90 95 96 86 83 89 84 81 76 66 61 56 49 49 51 53 50 47 53 52 54 60 44 39 34 40 45 46 51 59 57 60 53 60 63 49 51 62
77 82 89 85 88 90 94 93 93 93 92 83 75 70 63 56 55 48 43 45 45 46 46 38 44 46 47 51 43 45 54 50 48 47 53 47 64 61 52 61 66 59 64
82 90 88 89 89 92 92 93 91 89 83 74 68 67 56 53 52 48 42 43 43 41 38 35 35 29 36 45 44 49 45 45 49 53 52 46 49 51 46 55 63 55 68
84 88 87 92 91 84 86 87 88 79 76 73 66 67 60 56 49 47 46 45 47 48 45 45 36 34 33 32 37 38 40 47 51 54 57 51 47 43 45 52 49 53 58
89 85 88 91 84 83 77 74 77 72 74 77 70 65 64 63 61 54 55 48 43 42 44 42 42 45 49 56 53 50 48 46 50 53 53 50 48 45 51 47 53 53 54
80 83 91 86 85 81 72 67 60 62 69 59 51 49 55 62 70 78 73 64 50 39 41 41 44 46 47 48 48 56 54 52 57 53 50 52 50 49 49 50 50 55 62
81 85 87 82 80 73 63 58 40 43 44 53 50 42 36 33 41 56 30 71 46 31 33 37 44 48 49 55 55 57 59 58 56 53 56 52 57 51 47 53 59 60 63
74 81 77 77 71 62 54 53 51 46 40 41 49 52 52 51 50 49 26 30 43 42 37 31 40 46 51 59 64 70 64 57 51 50 61 59 53 56 58 50 60 55 54
72 70 72 70 59 52 47 46 38 42 45 45 46 49 57 62 63 65 64 32 33 31 35 20 21 23 26 37 36 46 61 58 50 50 58 59 67 62 62 55 49 50 50
67 68 67 61 50 43 40 37 36 37 38 44 46 47 47 51 59 70 78 79 71 60 50 42 37 38 40 38 38 41 50 54 58 62 56 56 53 54 46 44 45 43 46
64 61 60 55 47 39 35 33 33 34 37 40 44 44 43 49 59 61 63 65 63 56 49 45 40 38 36 30 25 25 29 27 28 34 37 43 43 45 49 51 47 43 45
59 58 56 53 45 41 36 32 30 33 36 36 41 42 42 53 58 61 64 60 56 52 47 43 40 35 33 29 23 17 14 17 21 30 35 37 34 34 38 40 40 46 46
52 51 51 50 42 37 33 32 35 35 36 37 41 45 49 53 56 55 55 54 50 47 44 37 34 32 24 24 24 17 6 12 18 21 24 26 28 36 42 37 54 48 53
46 45 46 46 45 38 36 38 36 36 36 38 40 46 47 49 52 52 50 49 49 47 49 46 37 31 24 21 26 30 21 9 11 24 29 38 48 34 44 57 50 52 51
41 45 43 42 42 43 40 35 32 33 35 38 41 42 43 46 48 50 48 46 45 48 49 49 46 42 32 28 33 39 29 18 20 30 35 52 40 51 52 48 47 52 50
36 40 41 43 41 41 37 34 32 33 36 41 43 41 42 46 48 49 45 46 48 49 47 43 40 42 41 34 36 41 35 25 29 43 62 46 52 44 46 44 52 53 44
33 34 37 39 42 37 35 34 31 31 35 38 40 40 40 44 45 44 43 44 43 49 54 52 45 44 40 37 38 45 41 31 40 51 55 46 43 48 47 50 53 46 47
Wind_Direction_500mb
304 304 303 303 301 302 304 304 304 304 304 301 299 296 295 292 288 287 281 276 266 271 268 259 259 260 260 251 244 242 246 247 251 259 260 248 247 231 228 240 245 241 237
302 302 301 303 305 304 305 308 306 302 299 301 298 294 292 289 291 285 279 273 272 269 268 259 254 255 256 254 246 244 244 249 250 249 252 246 237 242 220 234 236 242 239
302 304 308 307 306 306 304 297 299 300 298 301 300 294 294 292 290 283 281 277 271 268 264 260 256 254 254 249 249 246 238 242 248 251 248 250 242 240 230 238 231 235 239
306 309 306 301 305 307 303 301 304 308 303 301 295 293 292 289 286 278 277 273 272 265 265 253 258 255 240 257 241 247 238 238 239 245 244 242 249 246 237 229 229 232 228
310 305 306 309 302 306 315 306 308 302 303 300 297 298 292 292 283 280 275 271 268 270 267 264 251 268 251 254 245 247 248 233 233 240 244 246 246 252 248 225 231 229 227
310 311 308 303 311 313 313 309 305 302 304 295 303 296 293 295 279 278 271 275 269 272 264 260 256 257 245 248 239 251 245 226 224 230 242 242 244 257 253 245 226 218 214
309 306 313 317 313 314 310 306 307 306 306 306 303 300 297 296 289 279 273 271 265 265 263 257 260 256 259 255 243 248 232 235 237 228 237 244 243 251 259 253 231 226 222
310 314 318 314 314 310 313 309 311 310 309 309 307 304 299 298 289 286 276 271 268 266 259 258 254 255 256 253 246 242 229 230 236 240 246 248 249 250 259 245 245 234 231
318 318 317 313 317 315 314 316 316 312 308 310 308 299 298 295 289 285 279 278 270 268 260 251 253 255 256 241 235 229 216 224 231 231 232 238 244 246 252 242 233 231 233
318 319 318 318 320 318 318 319 317 313 309 306 305 302 300 295 298 289 277 274 271 268 263 254 251 250 250 249 240 228 235 239 244 248 250 248 238 240 236 239 238 226 229
323 322 322 323 323 322 322 319 316 314 310 304 300 302 298 292 291 287 277 273 268 261 259 262 260 254 235 235 242 245 249 255 253 251 259 246 232 240 244 235 233 233 225
324 324 325 328 325 321 321 322 320 316 316 313 305 307 301 290 284 276 270 264 262 255 255 261 256 241 238 236 235 244 253 251 246 251 253 242 229 236 236 236 235 230 227
328 328 327 328 325 325 325 327 323 327 322 317 308 302 302 292 290 275 265 262 254 251 252 251 244 238 242 243 241 246 240 244 247 248 248 247 245 246 254 246 241 240 231
330 329 331 328 327 330 335 334 335 337 330 318 304 297 299 299 291 283 268 260 243 241 240 239 239 245 253 250 243 238 240 239 244 248 250 250 242 243 246 235 237 232 220
332 333 334 331 334 338 338 340 352 352 341 348 323 306 300 299 298 289 269 247 237 234 238 238 239 238 238 239 236 237 241 240 245 247 245 242 239 243 240 236 232 219 208
336 337 336 336 341 342 345 349 2 358 15 22 20 13 2 345 332 329 303 222 211 218 218 230 232 239 247 242 237 238 243 248 248 238 239 238 241 241 232 215 204 200 201
339 338 338 345 346 349 1 3 358 11 19 23 29 31 29 25 23 12 61 172 190 200 214 231 248 252 245 234 249 245 251 239 230 227 231 246 236 225 211 200 206 207 207
344 343 349 347 352 1 11 8 11 21 24 30 37 37 34 41 55 60 76 125 193 198 227 212 181 176 222 238 231 223 226 236 237 238 228 220 211 210 200 196 199 207 218
344 352 352 352 3 12 20 19 26 26 37 36 34 39 43 47 56 66 79 81 87 90 95 96 100 103 110 126 140 148 164 170 177 175 174 183 190 192 189 198 212 228 235
348 357 358 359 7 11 17 16 19 29 33 34 35 38 53 51 55 60 65 69 72 74 77 76 80 86 89 91 101 123 143 152 170 174 178 177 183 197 208 223 221 214 214
353 1 4 6 11 13 12 18 21 25 28 38 53 52 57 62 63 65 64 63 64 65 66 69 69 78 80 82 93 110 136 161 178 191 199 204 208 200 194 200 194 193 174
359 5 12 11 16 18 20 20 17 26 43 51 60 63 68 68 67 64 61 60 59 59 60 61 63 63 69 72 60 58 102 176 184 193 202 205 198 199 194 188 168 171 170
2 8 15 21 23 19 19 20 29 38 48 55 59 62 63 68 70 65 60 61 58 58 59 57 59 61 62 60 41 36 44 93 168 182 180 167 168 158 159 164 164 162 162
4 13 16 22 24 24 26 27 36 49 52 54 57 57 61 63 62 62 59 54 58 58 59 57 55 54 55 52 37 30 37 68 118 142 150 149 135 148 155 157 158 157 156
2 12 22 23 23 25 30 38 45 53 56 59 58 55 60 64 60 57 50 53 54 50 50 53 53 52 57 52 42 34 45 73 116 133 141 138 144 153 152 149 152 155 159
4 11 19 27 29 30 35 43 50 56 53 52 52 58 65 61 54 49 47 53 55 53 50 54 57 54 59 55 46 42 55 87 119 138 148 151 145 148 149 147 153 153 153
Wind_Speed_850mb
64 64 68 70 71 72 67 66 70 74 76 77 78 80 76 74 71 69 73 78 71 77 75 79 78 74 76 65 59 54 59 63 68 56 50 54 49 42 54 70 65 61 60
63 70 70 71 65 65 69 70 65 65 65 68 75 78 86 90 79 73 74 74 66 76 68 72 79 71 67 66 66 61 68 57 56 59 50 48 38 59 45 33 59 55 58
65 69 67 64 66 68 70 72 76 79 92 89 83 85 89 87 85 82 76 72 67 75 68 65 62 66 72 74 76 67 60 67 68 52 52 45 45 41 69 45 49 56 54
66 60 61 68 74 67 73 85 89 83 82 87 83 87 89 89 89 85 77 73 71 76 70 70 63 77 71 66 64 67 57 60 61 57 52 49 47 47 50 58 55 58 47
60 63 76 66 73 87 75 78 82 77 89 85 88 93 90 85 84 77 77 75 68 66 71 69 82 49 68 67 60 74 66 61 48 44 48 55 54 52 46 48 46 53 51
60 63 64 74 83 81 83 78 84 86 90 84 92 90 91 86 85 74 73 73 70 76 73 81 76 90 71 63 68 63 75 63 47 48 42 51 56 51 45 39 44 52 55
63 70 80 74 80 84 84 83 89 92 92 90 90 85 83 77 75 74 72 70 73 73 74 71 68 71 74 66 70 52 47 48 56 51 59 44 53 56 47 37 47 61 61
65 78 75 76 84 89 89 88 92 89 91 89 85 81 80 75 64 61 63 63 65 66 70 65 60 66 70 79 76 67 42 41 44 49 60 59 55 54 46 39 41 55 66
68 79 77 78 96 92 94 89 88 92 93 88 80 80 72 69 60 59 53 55 55 57 55 59 58 61 69 60 52 36 35 34 35 44 48 49 54 61 56 41 46 49 64
79 81 79 94 91 90 95 96 86 83 89 84 81 76 66 61 56 49 49 51 53 50 47 53 52 54 60 44 39 34 40 45 46 51 59 57 60 53 60 63 49 51 62
77 82 89 85 88 90 94 93 93 93 92 83 75 70 63 56 55 48 43 45 45 46 46 38 44 46 47 51 43 45 54 50 48 47 53 47 64 61 52 61 66 59 64
82 90 88 89 89 92 92 93 91 89 83 74 68 67 56 53 52 48 42 43 43 41 38 35 35 29 36 45 44 49 45 45 49 53 52 46 49 51 46 55 63 55 68
84 88 87 92 91 84 86 87 88 79 76 73 66 67 60 56 49 47 46 45 47 48 45 45 36 34 33 32 37 38 40 47 51 54 57 51 47 43 45 52 49 53 58
89 85 88 91 84 83 77 74 77 72 74 77 70 65 64 63 61 54 55 48 43 42 44 42 42 45 49 56 53 50 48 46 50 53 53 50 48 45 51 47 53 53 54
80 83 91 86 85 81 72 67 60 62 69 59 51 49 55 62 70 78 73 64 50 39 41 41 44 46 47 48 48 56 54 52 57 53 50 52 50 49 49 50 50 55 62
81 85 87 82 80 73 63 58 40 43 44 53 50 42 36 33 41 56 30 71 46 31 33 37 44 48 49 55 55 57 59 58 56 53 56 52 57 51 47 53 59 60 63
74 81 77 77 71 62 54 53 51 46 40 41 49 52 52 51 50 49 26 30 43 42 37 31 40 46 51 59 64 70 64 57 51 50 61 59 53 56 58 50 60 55 54
72 70 72 70 59 52 47 46 38 42 45 45 46 49 57 62 63 65 64 32 33 31 35 20 21 23 26 37 36 46 61 58 50 50 58 59 67 62 62 55 49 50 50
67 68 67 61 50 43 40 37 36 37 38 44 46 47 47 51 59 70 78 79 71 60 50 42 37 38 40 38 38 41 50 54 58 62 56 56 53 54 46 44 45 43 46
64 61 60 55 47 39 35 33 33 34 37 40 44 44 43 49 59 61 63 65 63 56 49 45 40 38 36 30 25 25 29 27 28 34 37 43 43 45 49 51 47 43 45
59 58 56 53 45 41 36 32 30 33 36 36 41 42 42 53 58 61 64 60 56 52 47 43 40 35 33 29 23 17 14 17 21 30 35 37 34 34 38 40 40 46 46
52 51 51 50 42 37 33 32 35 35 36 37 41 45 49 53 56 55 55 54 50 47 44 37 34 32 24 24 24 17 6 12 18 21 24 26 28 36 42 37 54 48 53
46 45 46 46 45 38 36 38 36 36 36 38 40 46 47 49 52 52 50 49 49 47 49 46 37 31 24 21 26 30 21 9 11 24 29 38 48 34 44 57 50 52 51
41 45 43 42 42 43 40 35 32 33 35 38 41 42 43 46 48 50 48 46 45 48 49 49 46 42 32 28 33 39 29 18 20 30 35 52 40 51 52 48 47 52 50
36 40 41 43 41 41 37 34 32 33 36 41 43 41 42 46 48 49 45 46 48 49 47 43 40 42 41 34 36 41 35 25 29 43 62 46 52 44 46 44 52 53 44
33 34 37 39 42 37 35 34 31 31 35 38 40 40 40 44 45 44 43 44 43 49 54 52 45 44 40 37 38 45 41 31 40 51 55 46 43 48 47 50 53 46 47
Wind_Direction_850mb
304 304 303 303 301 302 304 304 304 304 304 301 299 296 295 292 288 287 281 276 266 271 268 259 259 260 260 251 244 242 246 247 251 259 260 248 247 231 228 240 245 241 237
302 302 301 303 305 304 305 308 306 302 299 301 298 294 292 289 291 285 279 273 272 269 268 259 254 255 256 254 246 244 244 249 250 249 252 246 237 242 220 234 236 242 239
302 304 308 307 306 306 304 297 299 300 298 301 300 294 294 292 290 283 281 277 271 268 264 260 256 254 254 249 249 246 238 242 248 251 248 250 242 240 230 238 231 235 239
306 309 306 301 305 307 303 301 304 308 303 301 295 293 292 289 286 278 277 273 272 265 265 253 258 255 240 257 241 247 238 238 239 245 244 242 249 246 237 229 229 232 228
310 305 306 309 302 306 315 306 308 302 303 300 297 298 292 292 283 280 275 271 268 270 267 264 251 268 251 254 245 247 248 233 233 240 244 246 246 252 248 225 231 229 227
310 311 308 303 311 313 313 309 305 302 304 295 303 296 293 295 279 278 271 275 269 272 264 260 256 257 245 248 239 251 245 226 224 230 242 242 244 257 253 245 226 218 214
309 306 313 317 313 314 310 306 307 306 306 306 303 300 297 296 289 279 273 271 265 265 263 257 260 256 259 255 243 248 232 235 237 228 237 244 243 251 259 253 231 226 222
310 314 318 314 314 310 313 309 311 310 309 309 307 304 299 298 289 286 276 271 268 266 259 258 254 255 256 253 246 242 229 230 236 240 246 248 249 250 259 245 245 234 231
318 318 317 313 317 315 314 316 316 312 308 310 308 299 298 295 289 285 279 278 270 268 260 251 253 255 256 241 235 229 216 224 231 231 232 238 244 246 252 242 233 231 233
318 319 318 318 320 318 318 319 317 313 309 306 305 302 300 295 298 289 277 274 271 268 263 254 251 250 250 249 240 228 235 239 244 248 250 248 238 240 236 239 238 226 229
323 322 322 323 323 322 322 319 316 314 310 304 300 302 298 292 291 287 277 273 268 261 259 262 260 254 235 235 242 245 249 255 253 251 259 246 232 240 244 235 233 233 225
324 324 325 328 325 321 321 322 320 316 316 313 305 307 301 290 284 276 270 264 262 255 255 261 256 241 238 236 235 244 253 251 246 251 253 242 229 236 236 236 235 230 227
328 328 327 328 325 325 325 327 323 327 322 317 308 302 302 292 290 275 265 262 254 251 252 251 244 238 242 243 241 246 240 244 247 248 248 247 245 246 254 246 241 240 231
330 329 331 328 327 330 335 334 335 337 330 318 304 297 299 299 291 283 268 260 243 241 240 239 239 245 253 250 243 238 240 239 244 248 250 250 242 243 246 235 237 232 220
332 333 334 331 334 338 338 340 352 352 341 348 323 306 300 299 298 289 269 247 237 234 238 238 239 238 238 239 236 237 241 240 245 247 245 242 239 243 240 236 232 219 208
336 337 336 336 341 342 345 349 2 358 15 22 20 13 2 345 332 329 303 222 211 218 218 230 232 239 247 242 237 238 243 248 248 238 239 238 241 241 232 215 204 200 201
339 338 338 345 346 349 1 3 358 11 19 23 29 31 29 25 23 12 61 172 190 200 214 231 248 252 245 234 249 245 251 239 230 227 231 246 236 225 211 200 206 207 207
344 343 349 347 352 1 11 8 11 21 24 30 37 37 34 41 55 60 76 125 193 198 227 212 181 176 222 238 231 223 226 236 237 238 228 220 211 210 200 196 199 207 218
344 352 352 352 3 12 20 19 26 26 37 36 34 39 43 47 56 66 79 81 87 90 95 96 100 103 110 126 140 148 164 170 177 175 174 183 190 192 189 198 212 228 235
348 357 358 359 7 11 17 16 19 29 33 34 35 38 53 51 55 60 65 69 72 74 77 76 80 86 89 91 101 123 143 152 170 174 178 177 183 197 208 223 221 214 214
353 1 4 6 11 13 12 18 21 25 28 38 53 52 57 62 63 65 64 63 64 65 66 69 69 78 80 82 93 110 136 161 178 191 199 204 208 200 194 200 194 193 174
359 5 12 11 16 18 20 20 17 26 43 51 60 63 68 68 67 64 61 60 59 59 60 61 63 63 69 72 60 58 102 176 184 193 202 205 198 199 194 188 168 171 170
2 8 15 21 23 19 19 20 29 38 48 55 59 62 63 68 70 65 60 61 58 58 59 57 59 61 62 60 41 36 44 93 168 182 180 167 168 158 159 164 164 162 162
4 13 16 22 24 24 26 27 36 49 52 54 57 57 61 63 62 62 59 54 58 58 59 57 55 54 55 52 37 30 37 68 118 142 150 149 135 148 155 157 158 157 156
2 12 22 23 23 25 30 38 45 53 56 59 58 55 60 64 60 57 50 53 54 50 50 53 53 52 57 52 42 34 45 73 116 133 141 138 144 153 152 149 152 155 159
4 11 19 27 29 30 35 43 50 56 53 52 52 58 65 61 54 49 47 53 55 53 50 54 57 54 59 55 46 42 55 87 119 138 148 151 145 148 149 147 153 153 153